FW7817 Weather Reports


time (UTC)temp
C
wind
direction
speed
KPH
gust
KPH
rain 1hr
cm
rain 24hr
cm
rain mn
cm
humidity
%
barometer
mb
20260505083950 12 26 3.2 9.7 0.00 0.18 0.18 53 1009.6
20260505083444 12 71 3.2 9.7 0.00 0.18 0.18 53 1009.5
20260505082943 12 92 3.2 9.7 0.00 0.18 0.18 53 1009.4
20260505082443 12 268 3.2 9.7 0.00 0.18 0.18 54 1009.3
20260505081943 12 355 3.2 9.7 0.00 0.18 0.18 52 1009.1
20260505081443 12 332 3.2 11.3 0.00 0.18 0.18 53 1009.0
20260505080942 12 101 4.8 17.7 0.00 0.18 0.18 51 1009.0
20260505080442 12 5 4.8 22.5 0.00 0.18 0.18 52 1008.8
20260505075943 12 333 4.8 22.5 0.00 0.18 0.18 51 1008.4
20260505074941 12 150 4.8 14.5 0.00 0.18 0.18 53 1008.3
20260505073937 12 5 4.8 17.7 0.03 0.18 0.18 53 1008.5
20260505073436 12 88 4.8 17.7 0.03 0.18 0.18 56 1008.3
20260505072936 12 325 4.8 19.3 0.05 0.18 0.18 58 1008.5
20260505072437 12 9 4.8 19.3 0.08 0.18 0.18 58 1008.4
20260505071936 12 123 4.8 12.9 0.08 0.18 0.18 61 1008.4
20260505071437 12 239 4.8 12.9 0.10 0.18 0.18 64 1008.3
20260505070930 11 46 3.2 12.9 0.13 0.18 0.18 67 1008.2
20260505070423 11 37 3.2 6.4 0.13 0.18 0.18 69 1008.8
20260505065411 11 57 1.6 4.8 0.18 0.18 0.18 71 1009.3
20260505064908 12 96 1.6 4.8 0.18 0.18 0.18 71 1009.7
20260505063854 12 236 1.6 4.8 0.15 0.15 0.15 70 1009.8
20260505063351 12 9 1.6 4.8 0.13 0.13 0.15 68 1008.2
20260505062842 13 18 1.6 6.4 0.13 0.13 0.13 67 1009.4
20260505061830 13 305 3.2 12.9 0.08 0.08 0.10 64 1009.8
20260505061323 14 285 3.2 11.3 0.08 0.08 0.08 62 1009.2
20260505060818 15 315 4.8 12.9 0.05 0.05 0.05 60 1009.4
20260505060312 15 286 4.8 19.3 0.03 0.03 0.05 58 1009.8
20260505054754 17 14 4.8 14.5 0.00 0.00 0.00 44 1007.8
20260505054248 17 302 4.8 14.5 0.00 0.00 0.00 42 1007.6
20260505053742 17 48 4.8 12.9 0.00 0.00 0.00 41 1007.5
20260505053236 18 249 4.8 12.9 0.00 0.00 0.00 41 1007.5
20260505052730 18 58 4.8 14.5 0.00 0.00 0.00 41 1007.2
20260505052224 18 36 4.8 16.1 0.00 0.00 0.00 40 1007.0
20260505051719 18 12 6.4 16.1 0.00 0.00 0.00 40 1006.8
20260505051212 18 302 6.4 19.3 0.00 0.00 0.00 40 1006.5
20260505050706 19 49 6.4 16.1 0.00 0.00 0.00 40 1006.4
20260505050200 19 355 6.4 14.5 0.00 0.00 0.00 40 1006.1
20260505041635 21 18 3.2 14.5 0.00 0.00 0.00 40 1005.7
20260505041135 21 42 3.2 9.7 0.00 0.00 0.00 40 1005.6
20260505040636 21 297 3.2 12.9 0.00 0.00 0.00 41 1005.4
20260505035635 21 294 3.2 8.0 0.00 0.00 0.00 42 1005.5
20260505034635 21 297 4.8 14.5 0.00 0.00 0.00 43 1005.6
20260505034134 21 63 3.2 17.7 0.00 0.00 0.00 46 1005.4
20260505033637 21 313 3.2 17.7 0.00 0.00 0.00 47 1005.5
20260505033137 21 299 3.2 11.3 0.00 0.00 0.00 52 1005.3
20260505032638 21 288 3.2 11.3 0.00 0.00 0.00 55 1005.2
20260505032137 21 294 3.2 12.9 0.00 0.00 0.00 59 1005.0
20260505031635 21 281 1.6 12.9 0.00 0.00 0.00 64 1004.8
20260505031134 21 294 0.0 4.8 0.00 0.00 0.00 67 1004.6
20260505030634 21 140 0.0 0.0 0.00 0.00 0.00 67 1004.3
20260505030134 21 140 0.0 0.0 0.00 0.00 0.00 66 1004.0
20260505025635 21 140 0.0 0.0 0.00 0.00 0.00 65 1003.8
20260505025135 21 140 0.0 0.0 0.00 0.00 0.00 65 1003.9
20260505024635 21 140 0.0 0.0 0.00 0.00 0.00 65 1003.9
20260505023634 21 140 0.0 0.0 0.00 0.00 0.00 65 1003.8
20260505023132 21 140 0.0 1.6 0.00 0.00 0.00 64 1003.7
20260505022128 21 140 1.6 3.2 0.00 0.00 0.00 64 1003.3
20260505021628 22 137 0.0 3.2 0.00 0.00 0.00 64 1003.5
20260505021129 22 137 0.0 3.2 0.00 0.00 0.00 63 1003.3
20260505020629 22 136 1.6 4.8 0.00 0.00 0.00 63 1003.3
20260505020128 22 136 1.6 4.8 0.00 0.00 0.00 62 1003.2
20260505015630 22 134 1.6 4.8 0.00 0.00 0.00 62 1003.2
20260505014616 22 136 0.0 3.2 0.00 0.00 0.00 61 1003.1
20260505013604 23 136 0.0 0.0 0.00 0.00 0.00 61 1002.9
20260505013057 23 136 0.0 0.0 0.00 0.00 0.00 60 1002.9
20260505012045 24 136 0.0 0.0 0.00 0.00 0.00 57 1002.7
20260505011539 24 136 0.0 0.0 0.00 0.00 0.00 56 1002.6
20260505011033 24 136 0.0 0.0 0.00 0.00 0.00 55 1002.5
20260505010527 25 136 0.0 0.0 0.00 0.00 0.00 55 1002.5
20260505005515 25 136 0.0 1.6 0.00 0.00 0.00 54 1002.5
20260505005009 25 136 0.0 1.6 0.00 0.00 0.00 53 1002.4
20260505004503 25 136 0.0 1.6 0.00 0.00 0.00 52 1002.4
20260505003958 25 136 0.0 3.2 0.00 0.00 0.00 52 1002.5
20260505003452 25 136 0.0 3.2 0.00 0.00 0.00 51 1002.5
20260505002944 26 136 0.0 1.6 0.00 0.00 0.00 51 1002.4
20260505001933 26 136 0.0 1.6 0.00 0.00 0.00 52 1002.5
20260505001427 26 136 0.0 1.6 0.00 0.00 0.00 50 1002.5
20260505000415 26 136 0.0 0.0 0.00 0.00 0.00 49 1002.6
20260504235909 26 136 0.0 1.6 0.00 0.00 0.00 49 1002.6
20260504235403 26 136 0.0 3.2 0.00 0.00 0.00 48 1002.5
20260504234856 27 136 1.6 3.2 0.00 0.00 0.00 47 1002.6
20260504234351 27 136 0.0 3.2 0.00 0.00 0.00 47 1002.6
20260504233845 27 136 0.0 3.2 0.00 0.00 0.00 47 1002.6
20260504233340 27 138 0.0 3.2 0.00 0.00 0.00 46 1002.7
20260504232833 27 138 0.0 3.2 0.00 0.00 0.00 45 1002.6
20260504231821 27 138 0.0 3.2 0.00 0.00 0.00 44 1002.7
20260504231315 27 141 0.0 3.2 0.00 0.00 0.00 44 1002.6
20260504230809 28 134 0.0 3.2 0.00 0.00 0.00 43 1002.7
20260504230304 28 134 0.0 3.2 0.00 0.00 0.00 42 1002.7
20260504225757 28 134 0.0 3.2 0.00 0.00 0.00 42 1002.7
20260504225252 28 134 0.0 1.6 0.00 0.00 0.00 41 1002.5
20260504224745 28 134 0.0 4.8 0.00 0.00 0.00 40 1002.5
20260504223733 28 185 0.0 8.0 0.00 0.00 0.00 41 1002.5
20260504223230 29 170 0.0 6.4 0.00 0.00 0.00 41 1002.4
20260504222228 29 180 1.6 3.2 0.00 0.00 0.00 40 1002.5
20260504221225 29 146 1.6 4.8 0.00 0.00 0.00 40 1002.5
20260504220726 29 170 3.2 11.3 0.00 0.00 0.00 42 1002.5
20260504220224 29 169 1.6 11.3 0.00 0.00 0.00 40 1002.5
20260504215724 30 219 0.0 4.8 0.00 0.00 0.00 43 1002.4
20260504215224 30 222 1.6 8.0 0.00 0.00 0.00 40 1002.5
20260504214222 30 152 1.6 8.0 0.00 0.00 0.00 40 1002.7
20260504213222 30 144 1.6 9.7 0.00 0.00 0.00 40 1002.8
20260504212221 30 231 0.0 3.2 0.00 0.00 0.00 42 1002.7
20260504211719 29 210 0.0 4.8 0.00 0.00 0.00 42 1002.8
20260504211219 29 207 1.6 9.7 0.00 0.00 0.00 40 1002.8
20260504210718 29 155 1.6 9.7 0.00 0.00 0.00 40 1003.0
20260504210218 29 165 1.6 4.8 0.00 0.00 0.00 40 1003.0
20260504205712 30 177 1.6 4.8 0.00 0.00 0.00 42 1003.0
20260504205206 29 233 0.0 4.8 0.00 0.00 0.00 41 1003.1
20260504203652 29 246 1.6 14.5 0.00 0.00 0.00 40 1003.2
20260504202657 30 163 3.2 12.9 0.00 0.00 0.00 40 1003.3
20260504202152 30 177 3.2 12.9 0.00 0.00 0.00 40 1003.3
20260504201652 30 155 1.6 8.0 0.00 0.00 0.00 41 1003.3
20260504201153 30 128 1.6 8.0 0.00 0.00 0.00 40 1003.3
20260504200153 30 190 3.2 9.7 0.00 0.00 0.00 39 1003.6
20260504195649 30 220 3.2 11.3 0.00 0.00 0.00 38 1003.6
20260504195149 30 149 1.6 11.3 0.00 0.00 0.00 39 1003.6
20260504194650 30 188 1.6 6.4 0.00 0.00 0.00 39 1003.6
20260504194149 30 184 1.6 6.4 0.00 0.00 0.00 38 1003.6
20260504192646 30 265 1.6 9.7 0.00 0.00 0.00 41 1003.6
20260504192147 30 242 3.2 11.3 0.00 0.00 0.00 42 1003.6
20260504191646 30 231 3.2 11.3 0.00 0.00 0.00 40 1003.7
20260504191146 30 155 3.2 9.7 0.00 0.00 0.00 41 1003.7
20260504190646 30 149 3.2 11.3 0.00 0.00 0.00 39 1003.7
20260504190147 30 161 3.2 12.9 0.00 0.00 0.00 40 1003.7
20260504184142 30 155 1.6 4.8 0.00 0.00 0.00 44 1003.8
20260504183643 30 152 3.2 8.0 0.00 0.00 0.00 43 1003.8
20260504183142 29 227 1.6 8.0 0.00 0.00 0.00 43 1003.9
20260504182641 30 202 1.6 6.4 0.00 0.00 0.00 44 1003.9
20260504182142 29 223 1.6 6.4 0.00 0.00 0.00 42 1003.8
20260504181639 29 213 3.2 8.0 0.00 0.00 0.00 41 1003.8
20260504180139 29 245 1.6 8.0 0.00 0.00 0.00 44 1003.9
20260504175640 29 213 1.6 9.7 0.00 0.00 0.00 42 1004.0
20260504175139 29 215 1.6 9.7 0.00 0.00 0.00 42 1004.0
20260504174137 28 245 3.2 9.7 0.00 0.00 0.00 43 1004.0
20260504172619 28 108 1.6 6.4 0.00 0.00 0.00 43 1004.2
20260504172113 28 264 3.2 8.0 0.00 0.00 0.00 48 1004.2
20260504171606 28 264 3.2 8.0 0.00 0.00 0.00 44 1004.2
20260504171101 28 194 3.2 8.0 0.00 0.00 0.00 45 1004.2
20260504170554 27 275 3.2 8.0 0.00 0.00 0.00 44 1004.3
20260504160444 25 27 3.2 9.7 0.00 0.00 0.00 50 1004.2
20260504150837 23 258 3.2 14.5 0.00 0.00 0.00 52 1004.4
20260504150332 23 279 3.2 17.7 0.00 0.00 0.00 53 1004.4
20260504141232 21 238 3.2 17.7 0.00 0.00 0.00 57 1004.6
20260504130624 16 200 1.6 4.8 0.00 0.00 0.00 73 1004.2
20260504130124 15 200 1.6 4.8 0.00 0.00 0.00 74 1004.1
20260504120104 12 227 0.0 0.0 0.00 0.00 0.00 80 1004.3
20260504110556 12 227 0.0 0.0 0.00 0.00 0.00 80 1004.6
20260504100552 13 227 0.0 0.0 0.00 0.00 0.00 74 1005.2